Location: Le Hiès Ruisseau
(43.3000°N, 0.4500°W)
Time: 13:09:38
(UTC+00:00)

ADEOS - Pass Details

Date: 28 January 2023
Orbit: 792 x 793 km, 98.9° (Epoch: 19 March)

Event Time Altitude Azimuth Distance (km) Brightness Sun altitude
Rises 17:53:38 0° 171° (S) 3,279 6.9 -8.6°
Reaches altitude 10° 17:55:57 10° 174° (S) 2,354 6.2 -9.0°
Maximum altitude 18:01:08 68° 258° (WSW) 857 4.0 -9.9°
Drops below altitude 10° 18:06:21 10° 341° (NNW) 2,370 6.1 -10.8°
Sets 18:08:42 0° 344° (NNW) 3,303 6.8 -11.2°
